FW6155 Weather Reports


Display with metric or nautical units.
time (UTC)temp
F
wind
direction
speed
MPH
gust
MPH
rain 1hr
in
rain 24hr
in
rain mn
in
humidity
%
barometer
mb
20260508081544 52 0.0 0.0 0.00 0.00 0.00 85 1017.4
20260508080047 52 0.0 0.0 0.00 0.00 0.00 85 1017.4
20260508074550 52 0.0 0.0 0.00 0.00 0.00 84 1017.4
20260508073044 52 0.0 0.0 0.00 0.00 0.00 84 1017.5
20260508071544 52 0.0 0.0 0.00 0.00 0.00 83 1017.5
20260508070051 53 0.0 0.0 0.00 0.00 0.00 83 1017.5
20260508064548 53 0.0 0.0 0.00 0.00 0.00 82 1017.5
20260508063103 53 0.0 0.0 0.00 0.00 0.00 82 1017.6
20260508061547 53 0.0 0.0 0.00 0.00 0.00 81 1017.6
20260508060042 53 0.0 0.0 0.00 0.00 0.00 81 1017.7
20260508054539 54 0.0 0.0 0.00 0.00 0.00 80 1017.7
20260508053055 54 0.0 0.0 0.00 0.00 0.00 80 1017.7
20260508051547 54 0.0 0.0 0.00 0.00 0.00 79 1017.7
20260508050044 54 0.0 0.0 0.00 0.00 0.00 78 1017.7
20260508044542 55 0.0 0.0 0.00 0.00 0.00 76 1017.9
20260508043054 55 0.0 0.0 0.00 0.00 0.00 75 1017.9
20260508041552 56 0.0 0.0 0.00 0.00 0.00 75 1017.9
20260508040047 56 0.0 0.0 0.00 0.00 0.00 74 1017.8
20260508034545 57 0.0 0.0 0.00 0.00 0.00 73 1017.7
20260508033044 57 0.0 0.0 0.00 0.00 0.00 72 1017.8
20260508031543 58 0.0 0.0 0.00 0.00 0.00 72 1017.7
20260508030043 58 0.0 0.0 0.00 0.00 0.00 71 1017.8
20260508024547 59 0.0 0.0 0.00 0.00 0.00 72 1018.0
20260508023046 60 0.0 0.0 0.00 0.00 0.00 69 1018.0
20260508021549 61 0.0 0.0 0.00 0.00 0.00 66 1018.1
20260508020048 62 0.0 0.0 0.00 0.00 0.00 65 1018.2
20260508014543 62 0.0 0.0 0.00 0.00 0.00 63 1018.1
20260508013052 63 0.0 0.0 0.00 0.00 0.00 61 1018.2
20260508011542 63 0.0 0.0 0.00 0.00 0.00 62 1018.3
20260508010044 63 0.0 0.0 0.00 0.00 0.00 61 1018.6
20260508004544 63 0.0 0.0 0.00 0.00 0.00 60 1018.6
20260508003044 63 0.0 0.0 0.00 0.00 0.00 61 1018.7
20260508001607 63 0.0 0.0 0.00 0.00 0.00 60 1018.7
20260508000040 63 0.0 0.0 0.00 0.00 0.00 60 1018.8
20260507234549 63 0.0 0.0 0.00 0.00 0.00 61 1018.8
20260507233044 63 0.0 0.0 0.00 0.00 0.00 61 1018.8
20260507231545 63 0.0 0.0 0.00 0.00 0.00 62 1018.9
20260507230043 63 0.0 0.0 0.00 0.00 0.00 60 1019.0
20260507224552 62 0.0 0.0 0.00 0.00 0.00 61 1019.3
20260507223040 62 0.0 0.0 0.00 0.00 0.00 63 1019.3
20260507221547 62 0.0 0.0 0.00 0.00 0.00 62 1019.5
20260507220047 61 0.0 0.0 0.00 0.00 0.00 62 1019.5
20260507214545 61 0.0 0.0 0.00 0.00 0.00 63 1019.7
20260507213044 61 0.0 0.0 0.00 0.00 0.00 64 1019.9
20260507211542 61 0.0 0.0 0.00 0.00 0.00 63 1020.1
20260507210052 61 0.0 0.0 0.00 0.00 0.00 63 1020.3
20260507204553 61 0.0 0.0 0.00 0.00 0.00 62 1020.4
20260507203045 62 0.0 0.0 0.00 0.00 0.00 61 1020.7
20260507201558 61 0.0 0.0 0.00 0.00 0.00 63 1020.8
20260507200042 62 0.0 0.0 0.00 0.00 0.00 61 1020.9
20260507194549 62 0.0 0.0 0.00 0.00 0.00 62 1021.0
20260507193051 61 0.0 0.0 0.00 0.00 0.00 65 1021.1
20260507191552 61 0.0 0.0 0.00 0.00 0.00 66 1021.2
20260507190047 60 0.0 0.0 0.00 0.00 0.00 66 1021.4
20260507184545 60 0.0 0.0 0.00 0.00 0.00 67 1021.3
20260507183052 59 0.0 0.0 0.00 0.00 0.00 68 1021.4
20260507181600 60 0.0 0.0 0.00 0.00 0.00 69 1021.6
20260507180051 60 0.0 0.0 0.00 0.00 0.00 66 1021.6
20260507174551 59 0.0 0.0 0.00 0.00 0.00 70 1021.7
20260507173043 58 0.0 0.0 0.00 0.00 0.00 72 1021.7
20260507171542 58 0.0 0.0 0.00 0.00 0.00 72 1021.6
20260507170053 57 0.0 0.0 0.00 0.00 0.00 74 1021.6
20260507164541 57 0.0 0.0 0.00 0.00 0.00 72 1021.7
20260507163047 56 0.0 0.0 0.00 0.00 0.00 74 1021.8
20260507161545 55 0.0 0.0 0.00 0.00 0.00 74 1021.7
20260507160044 54 0.0 0.0 0.00 0.00 0.00 78 1021.9
20260507154547 53 0.0 0.0 0.00 0.00 0.00 79 1022.0
20260507153049 53 0.0 0.0 0.00 0.00 0.00 80 1022.0
20260507151540 52 0.0 0.0 0.00 0.00 0.00 81 1021.8
20260507150047 52 0.0 0.0 0.00 0.00 0.00 83 1021.9
20260507144545 52 0.0 0.0 0.00 0.00 0.00 82 1022.0
20260507143046 52 0.0 0.0 0.00 0.00 0.00 81 1021.9
20260507141543 52 0.0 0.0 0.00 0.00 0.00 84 1021.9
20260507140048 51 0.0 0.0 0.00 0.00 0.00 85 1021.8
20260507134553 50 0.0 0.0 0.00 0.00 0.00 86 1021.7
20260507133051 50 0.0 0.0 0.00 0.00 0.00 86 1021.8
20260507131557 49 0.0 0.0 0.00 0.00 0.00 86 1021.7
20260507130058 50 0.0 0.0 0.00 0.00 0.00 85 1021.6
20260507124550 50 0.0 0.0 0.00 0.00 0.00 85 1021.6
20260507123042 51 0.0 0.0 0.00 0.00 0.00 84 1021.8
20260507121540 51 0.0 0.0 0.00 0.00 0.00 85 1021.6
20260507120047 51 0.0 0.0 0.00 0.00 0.00 85 1021.8
20260507114558 52 0.0 0.0 0.00 0.00 0.00 84 1021.9
20260507113045 52 0.0 0.0 0.00 0.00 0.00 84 1022.0
20260507111544 52 0.0 0.0 0.00 0.00 0.00 85 1022.1
20260507110042 52 0.0 0.0 0.00 0.00 0.00 85 1022.1
20260507104541 52 0.0 0.0 0.00 0.00 0.00 85 1022.2
20260507103046 52 0.0 0.0 0.00 0.00 0.00 85 1022.3
20260507101545 52 0.0 0.0 0.00 0.00 0.00 84 1022.4
20260507100045 52 0.0 0.0 0.00 0.00 0.00 84 1022.3
20260507094544 52 0.0 0.0 0.00 0.00 0.00 84 1022.4
20260507093048 52 0.0 0.0 0.00 0.00 0.00 84 1022.4
20260507091552 52 0.0 0.0 0.00 0.00 0.00 84 1022.3
20260507090052 53 0.0 0.0 0.00 0.00 0.00 85 1022.4
20260507084546 53 0.0 0.0 0.00 0.00 0.00 85 1022.2
20260507083045 53 0.0 0.0 0.00 0.00 0.00 85 1022.2